sat.trackr.live / text

‹ back to catalog

MEASAT 3D

NORAD 52904 · 2022-067B

PAYLOAD ACTIVE UNKNOWN

§ Identity

Operator
Country
MALA
Launch date
2022-06-22
Launch site
FRGUI
Launch vehicle
Mass (kg)
RCS (m²)

Purposes: comms

External: N2YO · Heavens-Above · Gunter

§ Orbital elements

Epoch: 2026-05-25T02:28:00.160032Z

Period
1,436.11 min
Inclination
0.0349°
Eccentricity
0.0001886
Mean motion
1.00271051 rev/d
Perigee alt
35,778.8 km
Apogee alt
35,794.8 km
Semi-major
42,164.9 km
B*
0.0000e+0
RAAN
16.4521°
Arg perigee
355.2849°
Mean anomaly
359.4577°
Rev number
1,441

§ Raw data

MEASAT 3D1 52904U 22067B   26145.10277963 -.00000244  00000+0  00000+0 0  99992 52904   0.0349  16.4521 0001886 355.2849 359.4577  1.00271051 14413

JSON: /api/v1/satellites/52904 · /tle

For live sub-satellite position, see the globe view (requires WebGL).

§ Visibility from observer

Set your observer location to see the next 7 days of passes ≥ 10°. The values pass through the URL so the page stays shareable.

No JS? Fill the form by hand. The geolocation button needs JavaScript.